This is the latest recevied weather packets stored in our database for station/object KB2SKP. If no packets are shown the sender has not sent any weather packets the latest 10 day(s).
| Time | Temp. | Humidity | Pressure | Rain* | Wind** | Luminosity | Snow |
|---|---|---|---|---|---|---|---|
| 1777840262 | 16.67° C | 31% | 1011.3 hPa | 0 mm | - | 41 W/m² | - |
| 1777839959 | 16.11° C | 33% | 1011.2 hPa | 0 mm | - | 37 W/m² | - |
| 1777839657 | 16.11° C | 32% | 1011.2 hPa | 0 mm | - | 36 W/m² | - |
| 1777839355 | 16.11° C | 34% | 1011.3 hPa | 0 mm | - | 35 W/m² | - |
| 1777837236 | 16.11° C | 36% | 1011.8 hPa | 0 mm | - | 35 W/m² | - |
| 1777836628 | 15.56° C | 33% | 1012.1 hPa | 0 mm | - | 37 W/m² | - |
| 1777835414 | 15° C | 33% | 1012.2 hPa | 0 mm | - | 36 W/m² | - |
| 1777832684 | 15° C | 34% | 1012.6 hPa | 0 mm | - | 159 W/m² | - |
| 1777831774 | 14.44° C | 36% | 1012.5 hPa | 0 mm | - | 45 W/m² | - |
| 1777828142 | 13.89° C | 36% | 1012.9 hPa | 0 mm | - | 50 W/m² | - |
| 1777827233 | 13.89° C | 35% | 1013.2 hPa | 0 mm | - | 32 W/m² | - |
| 1777826322 | 12.78° C | 36% | 1012.9 hPa | 0 mm | - | 31 W/m² | - |
| 1777825415 | 12.78° C | 34% | 1013.3 hPa | 0 mm | - | 18 W/m² | - |
| 1777823291 | 11.67° C | 37% | 1013.4 hPa | 0 mm | - | 31 W/m² | - |
| 1777821476 | 11.67° C | 38% | 1013.7 hPa | 0 mm | - | 31 W/m² | - |
| 1777819658 | 10.56° C | 41% | 1013.6 hPa | 0 mm | - | 58 W/m² | - |
| 1777818750 | 11.11° C | 40% | 1013.6 hPa | 0 mm | - | 30 W/m² | - |
| 1777818446 | 10.56° C | 41% | 1013.4 hPa | 0 mm | - | 39 W/m² | - |
| 1777818143 | 10.56° C | 41% | 1013.5 hPa | 0 mm | - | 34 W/m² | - |
| 1777817537 | 10° C | 41% | 1013.8 hPa | 0 mm | - | 143 W/m² | - |
| 1777816627 | 9.44° C | 45% | 1013.3 hPa | 0 mm | - | 53 W/m² | - |
| 1777815416 | 8.89° C | 48% | 1013.5 hPa | 0 mm | - | 85 W/m² | - |
| 1777815113 | 8.89° C | 46% | 1013.5 hPa | 0 mm | - | 244 W/m² | - |
| 1777814506 | 8.89° C | 48% | 1013.5 hPa | 0 mm | - | 41 W/m² | - |
| 1777813598 | 8.89° C | 50% | 1013.7 hPa | 0 mm | - | 26 W/m² | - |
* Rain latest hour (hover to see other rain measurements)
** Current wind speed in m/s (hover to see current wind gust speed)